Current Version              Previous Version:    01  02  03  04  05  06  07  08  09  10  11  12  13  14  15  16  17  18  19  20  21  22  23  24  25  26  27  28  29  30  
   31  32  33  34  35  36  37  38  39  40  41  42  43  44  45  46  47  48  49  50  51  52  53  54  55  56  57  58  59  60  

[Printable]
640
ASUS44 KLUB 011710
RWRTX
WEST TEXAS WEATHER ROUNDUP
NATIONAL WEATHER SERVICE LUBBOCK TX
1100 AM CST SUN FEB 01 2015

NOTE: "FAIR" INDICATES FEW OR NO CLOUDS BELOW 12,000 FEET WITH NO
SIGNIFICANT WEATHER AND/OR OBSTRUCTIONS TO VISIBILITY.

TXZ004-006>008-010-012-014-016-OKZ002-011800-
TEXAS PANHANDLE/OKLAHOMA PANHANDLE

CITY           SKY/WX    TMP DP  RH WIND       PRES   REMARKS
AMARILLO       CLOUDY    33  26  75 N24G32    30.15R WCI  20
BORGER         CLOUDY    34  23  64 N18G29    30.18R WCI  23
CANADIAN       MOSUNNY   35  24  64 N26G32    30.18R WCI  22
DALHART        MOSUNNY   36  22  56 N22       30.17R WCI  25
DUMAS          MOSUNNY   33  25  72 N23G31    30.15R WCI  20
GUYMON         MOSUNNY   32  19  58 N26G36    30.19R WCI  18
HEREFORD       CLOUDY    37  31  81 N17G24    30.16R WCI  27
PAMPA          PTSUNNY   32  23  69 N30G37    30.16R WCI  17
PERRYTON       SUNNY     32  20  63 N33G41    30.17R WCI  16
$$

TXZ026-029-035-045-048-011800-
SOUTHERN PANHANDLE/SOUTH PLAINS/ROLLING PLAINS

CITY           SKY/WX    TMP DP  RH WIND       PRES   REMARKS
CHILDRESS      CLOUDY    39  29  67 N23G31    30.13R WCI  28
SEMINOLE       MOSUNNY   44  37  77 NE14G22   30.12R
LUBBOCK        CLOUDY    42  35  76 N21G28    30.11R
PLAINVIEW      CLOUDY    38  32  81 N20G31    30.11R WCI  27
SNYDER         CLOUDY   N/A N/A N/A N17G24    30.11R
$$

TXZ052-054-060>062-072-078-127-140-154-169-011800-
PERMIAN BASIN/CONCHO VALLEY/BIG COUNTRY/EDWARDS PLATEAU

CITY           SKY/WX    TMP DP  RH WIND       PRES   REMARKS
ABILENE        CLOUDY    48  40  73 N17G26    30.07R
BIG SPRING     CLOUDY    51  43  75 N25       30.11R
BROWNWOOD      CLOUDY    57  50  77 NW21      30.00R
JUNCTION       SUNNY     62  51  67 NW8       29.99R
MIDLAND        PTSUNNY   50  42  74 NE22G29   30.08R
ODESSA         PTSUNNY   49  41  74 NE20G28   30.09R
SAN ANGELO     CLOUDY    56  48  74 N16G23    30.03R
SONORA         SUNNY     59  52  77 CALM      30.05S
SWEETWATER     CLOUDY    47  41  80 N21       30.11R
WINK           MOSUNNY   51  40  65 N20       30.08R
$$

TXZ055-058-074-075-080-082-011800-
FAR WEST/SOUTHWEST MOUNTAINS/TRANS PECOS

CITY           SKY/WX    TMP DP  RH WIND       PRES   REMARKS
ALPINE         SUNNY     55  40  57 NE7       30.14R
DRYDEN           N/A     64  48  56 W13       30.01R
EL PASO        PTSUNNY   48  45  89 N7        30.09R FOG
FORT STOCKTON  SUNNY     58  44  60 NW9       30.05R
GUADALUPE PASS CLOUDY    41  40  96 E14       30.12R
MARFA          SUNNY     54  41  62 W12       30.10R
PECOS          MOSUNNY   48  46  91 NW8       30.09R
PRESIDIO       FAIR      58  44  59 CALM      30.06S
$$

TXZ014-016-019-021>030-083-011800
TEXAS TECH WEST TEXAS MESONET/TEXAS PANHANDLE/NORTHERN SOUTH PLAINS

CITY           SKY/WX    TMP DP  RH WIND       PRES   REMARKS
ABERNATHY 5ENE   N/A     40  35  83 N22       30.13R WCI  29
AMARILLO 9NNE    N/A     33  27  76 N16       30.18R WCI  23
AMARILLO 7SSE    N/A     35  27  74 N23       30.16R WCI  22
AMHERST 1NE      N/A     38  33  82 N23       30.13R WCI  27
BOOTLEG 11WNW    N/A     35  26  68 N24       30.17R WCI  23
CANADIAN 6E      N/A     32  20  62 NW21G30   30.16R WCI  20
CAPROCK CYN SP   N/A     38  30  71 N18       30.14R WCI  28
CLARENDON 2WSW   N/A     36  27  68 N29       30.12R WCI  23
CLAUDE 12SW      N/A     35  27  73 N29G40    30.12R WCI  21
DIMMITT 2NE      N/A     35  31  85 N24       30.13R WCI  23
FLOYDADA 2NNE    N/A     38  32  80 N21       30.11R WCI  27
FRIONA 2NE       N/A     35  30  83 N18       30.15R WCI  24
GOODLETT 3W      N/A     40  29  64 N21       30.12R WCI  30
HART 3N          N/A     36  32  84 N25       30.12R WCI  24
HEREFORD 2NW     N/A     34  29  81 N21       30.15R WCI  23
MCLEAN 1E        N/A     34  26  70 NW31G40   30.10R WCI  21
MEMPHIS 1NE      N/A     38  29  70 N23       30.14R WCI  27
MULESHOE 2SSW    N/A     38  32  79 N18       30.15R WCI  28
OLTON 6S         N/A     38  32  78 N26       30.12R WCI  26
PALO DURO SP     N/A     35  26  70 N18       30.16R WCI  24
PAMPA 2E         N/A     32  24  72 NW26      30.14R WCI  19
PLAINVIEW 1S     N/A     37  32  84 N17       30.12R WCI  27
SILVERTON 7ESE   N/A     38  31  73 N20       30.13R WCI  28
TULIA 2ENE       N/A     35  31  84 N25       30.13R WCI  23
TURKEY 2WSW      N/A     40  30  69 N24       30.13R WCI  29
UMBARGER 3NNE    N/A     33  28  80 N21       30.16R WCI  21
$$

TXZ033>036-039>041-045>048-011800
TEXAS TECH WEST TEXAS MESONET/SOUTH PLAINS

CITY           SKY/WX    TMP DP  RH WIND       PRES   REMARKS
AIKEN 3WSW       N/A     37  33  86 N22       30.14R WCI  25
ANDREWS 2NE      N/A     46  39  74 N20       30.11R
BROWNFIELD 2S    N/A     43  36  77 N21       30.12R
DENVR CTY 7WNW   N/A     42  34  73 NE17      30.12R
GAIL 2ESE        N/A     45  39  79 N15       30.11R
LAMESA 2SE       N/A     45  39  79 N18       30.12R
LEVELLAND 4S     N/A     43  34  72 N21       30.12R
LUBBOCK 3WNW     N/A     44  35  70 N15       30.12R
MORTON 1ENE      N/A     40  35  84 N22       30.12R WCI  30
ODONNELL 1N      N/A     45  38  78 NE21      30.12R
PLAINS 3N        N/A     43  35  75 N16       30.12R
RALLS 1SE        N/A     41  35  77 N20       30.11R
REESE CENTER     N/A     41  34  75 N24       30.12R
SEAGRAVES 1SW    N/A     43  37  79 NE16      30.11R
SEMINOLE 2NNE    N/A     44  38  78 NE16      30.11R
SLATON 2NE       N/A     41  35  79 N16       30.12R
SNYDER 3E        N/A     45  40  84 N16       30.10R
SUNDOWN 8SW      N/A     43  33  68 N24       30.10R
TAHOKA 3NNE      N/A     42  36  78 N18       30.12R
WOLFFORTH 6SSW   N/A     44  41  89 N23       30.12R
$$

TXZ031-032-036>038-042>044-011800-
TEXAS TECH WEST TEXAS MESONET/ROLLING PLAINS

CITY           SKY/WX    TMP DP  RH WIND       PRES   REMARKS
ASPERMONT 3NE    N/A     46  36  66 N21       30.12R
FLUVANNA 3WNW    N/A     44  38  81 N16       30.10R
GRAHAM 5SSW      N/A     43  36  75 N21       30.11R
GUTHRIE 10WSW    N/A     43  35  74 N18       30.11R
HASKELL 1NW      N/A     45  39  79 N20       30.10R
JAYTON 1SSE      N/A     44  36  72 N20       30.12R
KNOX CITY 3NW    N/A     46  35  63 N21G30    30.12R
LK A HENRY 1NW   N/A     46  38  73 N18       30.12R
NORTHFIELD 1S    N/A     39  30  70 N18       30.15R WCI  29
ODELL 4ENE       N/A     40  31  71 NW22      30.13R WCI  29
PADUCAH 10SW     N/A     41  33  71 N22       30.12R
POST 1NE         N/A     46  38  74 N13       30.12R
RRING SPRGS 3N   N/A     39  33  78 N22       30.12R WCI  29
SEYMOUR 3NW      N/A     46  37  69 NW22      30.10R
SPUR 1W          N/A     42  35  76 N17       30.11R
WEINERT 2NNE     N/A     46  35  65 N21       30.11R
WHITE RVR 6NE    N/A     42  34  74 N20       30.10R
$$

TXZ052-054-060>062-072-078-127-140-154-169-011800-
TEXAS TECH WEST TEXAS MESONET/PERMIAN BASIN/
CONCHO VALLEY/BIG COUNTRY/EDWARDS PLATEAU

CITY           SKY/WX    TMP DP  RH WIND       PRES   REMARKS
COYANOSA 2N      N/A     55  46  74 N12       30.08S
JUNCTION 1SSW    N/A     62  51  68 NW6       30.01R
MERTZON 3NNE     N/A     53  47  78 NW10      30.06R
SAN ANGELO 7NW   N/A     54  47  77 NW17      30.04R
STRLNG CT 4WSW   N/A     50  44  81 N13       30.08R
ST LAWRNCE 5SW   N/A     48  45  91 N20       30.07R
SWEETWATR 11SW   N/A     47  41  80 N16       30.10R
WALL 1E          N/A     53  49  87 NW9       30.05R
$$

TXZ055-058-074-075-080-082-011800-
TEXAS TECH WEST TEXAS MESONET/FAR WEST/SOUTHWEST MOUNTAINS/TRANS PECOS

CITY           SKY/WX    TMP DP  RH WIND       PRES   REMARKS
PRSMN GAP BBNP   N/A     61  48  62 S6        30.05S
GUADLPE MTN NP   N/A     44  38  79 SE6       30.12R
$$